Location: Cajon Junction
(34.3117°N, 117.4748°W)
Time: 16:36:51
(UTC+00:00)

Cosmos 1470 - Pass Details

Date: 18 April 2024
Orbit: 490 x 508 km, 82.5° (Epoch: 20 May)

Event Time Altitude Azimuth Distance (km) Brightness Sun altitude
Rises 12:09:08 0° 353° (N) 2,632 6.5 -13.5°
Reaches altitude 10° 12:11:17 10° 354° (N) 1,739 5.6 -13.1°
Maximum altitude 12:15:06 89° 89° (E) 515 2.6 -12.4°
Drops below altitude 10° 12:18:52 10° 174° (S) 1,717 5.2 -11.7°
Sets 12:20:58 0° 174° (S) 2,594 6.1 -11.3°
